User: anonymous   Login
Location: Unspecified
(0.0000°N, 0.0000°E)
Time: 03:18:29
(UTC+00:00)
Language:

Tiangong 1 - Orbit

View from above orbital plane
View from above orbital plane
View from above satellite
View from above satellite

Ground track
Ground track

The orbit data is extracted from the following two-line orbital elements,

1 37820U 11053A   15089.85724172  .00078342  00000-0  51084-3 0  9994
2 37820 042.7678 022.6717 0011308 287.6204 172.6768 15.74835462201075
Epoch (UTC): 30 March 2015 20:34:25
Eccentricity: 0.0011308
inclination: 42.7678°
perigee height: 337 km
apogee height: 353 km
right ascension of ascending node: 22.6717°
argument of perigee: 287.6204°
revolutions per day: 15.74835462
mean anomaly at epoch: 172.6768°
orbit number at epoch: 20107

The dashed part of the orbit path shows where the satellite is in the earth's shadow,  

DLR